Regional Weather Roundup
Issued by NWS Glasgow, MT

Home | Current Version | Previous Version | Text Only | Print | Product List | Glossary On
Versions: 1 2 3 4 5 6 7 8 9 10 11 12 13 14 15 16 17 18 19 20 21 22 23 24 25 26 27 28 29 30 31 32 33 34 35 36 37 38 39 40 41 42 43 44 45 46 47 48 49 50
000
ASUS45 KGGW 272115
RWRGGW
HOURLY WEATHER ROUNDUP FOR NORTHEAST MONTANA
NATIONAL WEATHER SERVICE GLASGOW MONTANA
300 PM MDT WED AUG 27 2014

NOTE: "FAIR" INDICATES FEW OR NO CLOUDS BELOW 12,000 FEET WITH NO
SIGNIFICANT WEATHER AND/OR OBSTRUCTIONS TO VISISBILITY.

NORTHEAST MONTANA


CITY           SKY/WX    TMP DP  RH WIND       PRES   REMARKS
GLASGOW        SUNNY     85  48  27 SW7       29.94F
PLENTYWOOD       N/A     81  46  29 SW8         N/A
WOLF POINT     PTSUNNY   86  51  29 W7        29.94F
JORDAN           N/A     83  52  34 W8        29.97F
WINNETT          N/A     84  42  22 W5          N/A
SIDNEY         SUNNY     81  57  44 S8        30.01F
GLENDIVE       SUNNY     82  52  34 S10       30.02F
MALTA            N/A     84  46  26 W5          N/A
SCOBEY           N/A     84  47  27 S22G28    29.95F

FORT PECK REPORTS


CITY           SKY/WX    TMP DP  RH WIND       PRES   REMARKS
FORT PECK        N/A     83  53  35 S5          N/A
THE PINES        N/A     86  49  27 SW10        N/A

SOUTHEAST MONTANA


CITY           SKY/WX    TMP DP  RH WIND       PRES   REMARKS
BILLINGS       MOSUNNY   82  46  28 CALM      30.04F
MILES CITY     MOSUNNY   85  46  25 S13       30.00F
BAKER          MOSUNNY   80  50  34 SE7       30.07F
LIVINGSTON     SUNNY     84  37  18 W18       30.10F

CENTRAL MONTANA


CITY           SKY/WX    TMP DP  RH WIND       PRES   REMARKS
HAVRE          SUNNY     87  45  23 W10G21    29.93F
LEWISTOWN      SUNNY     81  43  26 W7        30.06F
GREAT FALLS    SUNNY     83  43  24 W7        30.02F
CUT BANK       MOSUNNY   82  45  27 W13       30.01F
HELENA         SUNNY     83  44  25 W12G17    30.06F
BUTTE          SUNNY     75  40  28 NW12G17   30.19F
BOZEMAN        SUNNY     77  44  30 NW10      30.12F

WESTERN MONTANA


CITY           SKY/WX    TMP DP  RH WIND       PRES   REMARKS
MISSOULA       SUNNY     81  45  28 CALM      30.08F
KALISPELL      NOT AVBL

NORTH DAKOTA


CITY           SKY/WX    TMP DP  RH WIND       PRES   REMARKS
WILLISTON      SUNNY     83  51  33 S10       30.00F
DICKINSON      MOSUNNY   77  55  46 S8        30.06F
MINOT          SUNNY     77  54  44 S13G20    30.04F
BISMARCK       MOSUNNY   77  59  53 SE6       30.09F

SOUTHERN SASKATCHEWAN


CITY           SKY/WX    TMP DP  RH WIND       PRES   REMARKS
REGINA         MOSUNNY   82  55  39 SW12      29.92F
MOOSE JAW      MOSUNNY   84  50  30 SW9       29.90F
ESTEVAN        MOSUNNY   79  52  38 S13       30.00F
SWIFT CURRENT  SUNNY     84  46  26 SW14G28   29.87F




USA.gov is the U.S. government's official web portal to all federal, state and local government web resources and services.